Location: Lancaster
(34.6980°N, 118.1360°W)
Time: 13:08:38
(UTC-08:00)

N. Korean satellite - Pass Details

Date: 14 November 2017
Orbit: 460 x 515 km, 97.2° (Epoch: 17 November)

Event Time Altitude Azimuth Distance (km) Brightness Sun altitude
Rises 18:53:50 0° 207° (SSW) 2,470 10.6 -25.9°
Reaches altitude 10° 18:56:42 10° 235° (SW) 1,606 9.9 -26.5°
Maximum altitude 18:58:29 14° 266° (W) 1,409 9.8 -26.9°
Drops below altitude 10° 19:00:16 10° 298° (WNW) 1,620 9.9 -27.2°
Sets 19:03:13 0° 326° (NW) 2,511 10.6 -27.8°
